Flag for India

Past Weather in 20°35'37"N, 78°57'46"E, India — Yesterday and Last 2 Weeks

Currently: 82 °F. Haze. (Weather station: Nagpur Sonegaon, India). See more current weather

Past Weather in 20°35'37"N, 78°57'46"E — Graph

°F

20°35'37"N, 78°57'46"E Temperature Yesterday

Maximum temperature yesterday: 86 °F (at 4:00 pm)
Minimum temperature yesterday: 75 °F (at 12:00 am)
Average temperature yesterday: 79 °F

High & Low Weather Summary for the Past Weeks

 TemperatureHumidityPressure
High93 °F (Aug 3, 1:00 pm)100% (Aug 5, 3:30 am)29.80 "Hg (Aug 5, 3:30 am)
Low75 °F (Aug 6, 6:00 pm)63% (Aug 6, 3:30 pm)29.39 "Hg (Aug 9, 4:30 pm)
Average81 °F91%29.59 "Hg
* Reported Aug 2 9:30 pm — Aug 17 10:00 pm, 20°35'37"N, 78°57'46"E. Weather by CustomWeather, © 2022

Note: Actual official high and low records may vary slightly from our data, if they occured in-between our weather recording intervals... More about our weather records

20°35'37"N, 78°57'46"E Weather History for the Previous 24 Hours

Scroll right to see more
 ConditionsComfort  
Time TempWeatherWind HumidityBarometerVisibility
10:00 pm
Wed, Aug 17
82 °FHaze.3 mph84%29.77 "Hg2 mi
9:30 pm82 °FHaze.3 mph84%29.77 "Hg2 mi
9:00 pm84 °FHaze.2 mph79%29.74 "Hg2 mi
8:30 pm84 °FHaze.3 mph79%29.74 "Hg2 mi
8:00 pm84 °FHaze.3 mph79%29.74 "Hg2 mi
7:30 pm84 °FHaze.2 mph79%29.74 "Hg2 mi
7:00 pm84 °FHaze.3 mph79%29.71 "Hg3 mi
6:30 pm86 °FHaze.3 mph75%29.71 "Hg3 mi
5:30 pm88 °FScattered clouds.6 mph75%29.68 "Hg3 mi
4:30 pm90 °FScattered clouds.6 mph71%29.68 "Hg3 mi
4:00 pm90 °FScattered clouds.7 mph71%29.71 "Hg3 mi
3:30 pm90 °FScattered clouds.8 mph71%29.71 "Hg3 mi
2:30 pm90 °FScattered clouds.7 mph71%29.71 "Hg3 mi
1:30 pm90 °FScattered clouds.8 mph71%29.74 "Hg3 mi
1:00 pm90 °FScattered clouds.8 mph71%29.74 "Hg3 mi
12:30 pm88 °FScattered clouds.6 mph70%29.77 "Hg3 mi
12:00 pm88 °FScattered clouds.9 mph75%29.77 "Hg3 mi
11:30 am88 °FScattered clouds.9 mph75%29.80 "Hg3 mi
10:30 am86 °FScattered clouds.9 mph75%29.80 "Hg3 mi
10:00 am84 °FScattered clouds.9 mph79%29.80 "Hg3 mi
9:30 am84 °FHaze.9 mph79%29.80 "Hg3 mi
9:00 am82 °FHaze.9 mph94%29.80 "Hg3 mi
8:30 am82 °FHaze.9 mph94%29.80 "Hg3 mi
8:00 am81 °FHaze.6 mph94%29.80 "Hg3 mi
7:30 am79 °FHaze.8 mph94%29.80 "Hg2 mi
6:30 am77 °FHaze.3 mph100%29.77 "Hg2 mi
5:00 am77 °FPassing clouds.2 mph100%29.77 "Hg2 mi
3:30 am79 °FPassing clouds.2 mph94%29.74 "Hg2 mi
2:30 am79 °FPassing clouds.2 mph94%29.74 "Hg2 mi
2:00 am79 °FPassing clouds.2 mph94%29.77 "Hg2 mi
1:30 am79 °FPassing clouds.2 mph94%29.77 "Hg2 mi
1:00 am79 °FPassing clouds.3 mph94%29.77 "Hg2 mi
12:30 am79 °FPassing clouds.3 mph94%29.77 "Hg2 mi
12:00 am79 °FPassing clouds.No wind94%29.77 "Hg2 mi
11:30 pm
Tue, Aug 16
79 °FPassing clouds.2 mph94%29.77 "Hg2 mi
Weather by CustomWeather, © 2022

See weather overview